| time (UTC) | temp C | wind direction | speed KPH | gust KPH | rain 1hr cm | rain 24hr cm | rain mn cm | humidity % | barometer mb |
| 20260905120559 | 16 | 72 | 0.0 | 0.0 | 0.00 | 0.00 | 0.00 | 89 | 1006.2 |
| 20260905120100 | 16 | 72 | 0.0 | 0.0 | 0.00 | 0.00 | 0.00 | 89 | 1006.1 |
| 20260905115601 | 16 | 72 | 0.0 | 0.0 | 0.00 | 0.00 | 0.00 | 89 | 1006.1 |
| 20260905115100 | 16 | 72 | 0.0 | 0.0 | 0.00 | 0.00 | 0.00 | 89 | 1005.9 |
| 20260905114627 | 16 | 72 | 0.0 | 1.6 | 0.00 | 0.00 | 0.00 | 88 | 1005.7 |
| 20260905114057 | 16 | 72 | 0.0 | 1.6 | 0.00 | 0.00 | 0.00 | 89 | 1005.8 |
| 20260905113556 | 16 | 72 | 0.0 | 3.2 | 0.00 | 0.00 | 0.00 | 88 | 1005.7 |
| 20260905113156 | 17 | 73 | 0.0 | 3.2 | 0.00 | 0.00 | 0.00 | 88 | 1005.7 |
| 20260905112556 | 17 | 73 | 0.0 | 3.2 | 0.00 | 0.00 | 0.00 | 88 | 1005.8 |
| 20260905112054 | 17 | 73 | 0.0 | 3.2 | 0.00 | 0.00 | 0.00 | 87 | 1005.7 |
| 20260905111555 | 17 | 73 | 0.0 | 3.2 | 0.00 | 0.00 | 0.00 | 86 | 1005.6 |
| 20260905111055 | 17 | 73 | 0.0 | 3.2 | 0.00 | 0.00 | 0.00 | 86 | 1005.5 |
| 20260905110552 | 17 | 73 | 0.0 | 3.2 | 0.00 | 0.00 | 0.00 | 86 | 1005.5 |
| 20260905110052 | 17 | 73 | 0.0 | 1.6 | 0.00 | 0.00 | 0.00 | 86 | 1005.3 |
| 20260905105552 | 17 | 73 | 0.0 | 4.8 | 0.00 | 0.00 | 0.00 | 86 | 1005.5 |
| 20260905105051 | 17 | 73 | 0.0 | 4.8 | 0.00 | 0.00 | 0.00 | 86 | 1005.4 |
| 20260905104552 | 17 | 76 | 0.0 | 1.6 | 0.00 | 0.00 | 0.00 | 85 | 1005.4 |
| 20260905104049 | 17 | 76 | 0.0 | 1.6 | 0.00 | 0.00 | 0.00 | 85 | 1005.3 |
| 20260905103549 | 17 | 76 | 0.0 | 4.8 | 0.00 | 0.00 | 0.00 | 85 | 1005.4 |
| 20260905103149 | 18 | 76 | 0.0 | 0.0 | 0.00 | 0.00 | 0.00 | 85 | 1005.4 |
| 20260905102546 | 18 | 76 | 0.0 | 0.0 | 0.00 | 0.00 | 0.00 | 85 | 1005.1 |
| 20260905102048 | 18 | 76 | 0.0 | 4.8 | 0.00 | 0.00 | 0.00 | 85 | 1004.9 |
| 20260905101546 | 18 | 76 | 1.6 | 4.8 | 0.00 | 0.00 | 0.00 | 84 | 1004.9 |
| 20260905101044 | 18 | 76 | 1.6 | 4.8 | 0.00 | 0.00 | 0.00 | 84 | 1004.9 |
| 20260905100545 | 18 | 76 | 0.0 | 0.0 | 0.00 | 0.00 | 0.00 | 83 | 1004.8 |
| 20260905095542 | 18 | 76 | 0.0 | 4.8 | 0.00 | 0.00 | 0.00 | 81 | 1004.7 |
| 20260905095045 | 18 | 76 | 3.2 | 4.8 | 0.00 | 0.00 | 0.00 | 82 | 1004.4 |
| 20260905094542 | 18 | 76 | 0.0 | 0.0 | 0.00 | 0.00 | 0.00 | 81 | 1004.5 |
| 20260905094040 | 18 | 76 | 0.0 | 0.0 | 0.00 | 0.00 | 0.00 | 82 | 1004.7 |
| 20260905093541 | 18 | 76 | 0.0 | 0.0 | 0.00 | 0.00 | 0.00 | 81 | 1004.7 |
| 20260905093143 | 18 | 76 | 0.0 | 6.4 | 0.00 | 0.00 | 0.00 | 79 | 1004.6 |
| 20260905092541 | 18 | 76 | 0.0 | 6.4 | 0.00 | 0.00 | 0.00 | 79 | 1004.4 |
| 20260905092040 | 19 | 76 | 3.2 | 6.4 | 0.00 | 0.00 | 0.00 | 80 | 1004.3 |
| 20260905091552 | 19 | 76 | 1.6 | 4.8 | 0.00 | 0.00 | 0.00 | 80 | 1004.4 |
| 20260905091039 | 18 | 76 | 3.2 | 6.4 | 0.00 | 0.00 | 0.00 | 79 | 1004.5 |
| 20260905090540 | 18 | 76 | 3.2 | 6.4 | 0.00 | 0.00 | 0.00 | 79 | 1004.3 |
| 20260905090039 | 18 | 77 | 1.6 | 6.4 | 0.00 | 0.00 | 0.00 | 79 | 1004.1 |
| 20260905085539 | 18 | 88 | 0.0 | 0.0 | 0.00 | 0.00 | 0.00 | 78 | 1004.4 |
| 20260905085036 | 19 | 88 | 0.0 | 0.0 | 0.00 | 0.00 | 0.00 | 78 | 1004.1 |
| 20260905084536 | 19 | 88 | 0.0 | 0.0 | 0.00 | 0.00 | 0.00 | 77 | 1004.2 |
| 20260905084036 | 19 | 88 | 0.0 | 4.8 | 0.00 | 0.00 | 0.00 | 77 | 1004.2 |
| 20260905083536 | 19 | 88 | 1.6 | 4.8 | 0.00 | 0.00 | 0.00 | 77 | 1004.3 |
| 20260905083135 | 20 | 88 | 3.2 | 4.8 | 0.00 | 0.00 | 0.00 | 76 | 1004.3 |
| 20260905082538 | 20 | 88 | 1.6 | 4.8 | 0.00 | 0.00 | 0.00 | 77 | 1004.1 |
| 20260905082036 | 20 | 88 | 1.6 | 4.8 | 0.00 | 0.00 | 0.00 | 75 | 1004.3 |
| 20260905081535 | 20 | 88 | 0.0 | 0.0 | 0.00 | 0.00 | 0.00 | 75 | 1004.2 |
| 20260905081034 | 20 | 88 | 0.0 | 0.0 | 0.00 | 0.00 | 0.00 | 75 | 1004.2 |
| 20260905080534 | 20 | 88 | 0.0 | 1.6 | 0.00 | 0.00 | 0.00 | 74 | 1004.2 |
| 20260905080039 | 20 | 88 | 0.0 | 1.6 | 0.00 | 0.00 | 0.00 | 74 | 1004.2 |
| 20260905075534 | 20 | 86 | 0.0 | 0.0 | 0.00 | 0.00 | 0.00 | 74 | 1004.3 |
| 20260905075034 | 20 | 86 | 0.0 | 3.2 | 0.00 | 0.00 | 0.00 | 74 | 1004.2 |
| 20260905074544 | 20 | 86 | 0.0 | 3.2 | 0.00 | 0.00 | 0.00 | 73 | 1004.3 |
| 20260905074033 | 21 | 86 | 0.0 | 4.8 | 0.00 | 0.00 | 0.00 | 73 | 1004.3 |
| 20260905073533 | 20 | 85 | 1.6 | 4.8 | 0.00 | 0.00 | 0.00 | 74 | 1004.3 |
| 20260905073133 | 20 | 69 | 0.0 | 3.2 | 0.00 | 0.00 | 0.00 | 73 | 1004.4 |
| 20260905072537 | 20 | 69 | 0.0 | 3.2 | 0.00 | 0.00 | 0.00 | 73 | 1004.2 |
| 20260905072035 | 20 | 69 | 0.0 | 4.8 | 0.00 | 0.00 | 0.00 | 73 | 1004.4 |
| 20260905071533 | 20 | 58 | 0.0 | 6.4 | 0.00 | 0.00 | 0.00 | 72 | 1004.5 |
| 20260905071034 | 20 | 58 | 3.2 | 6.4 | 0.00 | 0.00 | 0.00 | 72 | 1004.5 |
| 20260905070532 | 20 | 68 | 3.2 | 6.4 | 0.00 | 0.00 | 0.00 | 72 | 1004.3 |
| 20260905070032 | 20 | 76 | 1.6 | 4.8 | 0.00 | 0.00 | 0.00 | 71 | 1004.5 |
| 20260905065530 | 21 | 76 | 1.6 | 4.8 | 0.00 | 0.00 | 0.00 | 70 | 1004.5 |
| 20260905065034 | 21 | 76 | 3.2 | 4.8 | 0.00 | 0.00 | 0.00 | 71 | 1004.5 |
| 20260905064529 | 21 | 76 | 3.2 | 6.4 | 0.00 | 0.00 | 0.00 | 70 | 1004.4 |
| 20260905064028 | 21 | 76 | 4.8 | 6.4 | 0.00 | 0.00 | 0.00 | 69 | 1004.4 |
| 20260905063526 | 21 | 76 | 3.2 | 6.4 | 0.00 | 0.00 | 0.00 | 69 | 1004.4 |
| 20260905063127 | 22 | 76 | 3.2 | 6.4 | 0.00 | 0.00 | 0.00 | 67 | 1004.5 |
| 20260905062523 | 22 | 76 | 1.6 | 6.4 | 0.00 | 0.00 | 0.00 | 67 | 1004.4 |
| 20260905062026 | 22 | 76 | 3.2 | 6.4 | 0.00 | 0.00 | 0.00 | 67 | 1004.3 |
| 20260905061524 | 22 | 76 | 1.6 | 4.8 | 0.00 | 0.00 | 0.00 | 67 | 1004.4 |
| 20260905061023 | 22 | 76 | 3.2 | 6.4 | 0.00 | 0.00 | 0.00 | 67 | 1004.3 |
| 20260905060523 | 22 | 76 | 3.2 | 6.4 | 0.00 | 0.00 | 0.00 | 68 | 1004.4 |
| 20260905060024 | 22 | 82 | 0.0 | 4.8 | 0.00 | 0.00 | 0.00 | 67 | 1004.3 |
| 20260905055522 | 22 | 82 | 1.6 | 4.8 | 0.00 | 0.00 | 0.00 | 67 | 1004.4 |
| 20260905055023 | 22 | 86 | 3.2 | 6.4 | 0.00 | 0.00 | 0.00 | 66 | 1004.3 |
| 20260905054522 | 22 | 86 | 1.6 | 6.4 | 0.00 | 0.00 | 0.00 | 64 | 1004.3 |
| 20260905054022 | 23 | 89 | 4.8 | 6.4 | 0.00 | 0.00 | 0.00 | 62 | 1004.2 |
| 20260905053523 | 23 | 106 | 0.0 | 6.4 | 0.00 | 0.00 | 0.00 | 61 | 1004.2 |
| 20260905053123 | 24 | 106 | 0.0 | 4.8 | 0.00 | 0.00 | 0.00 | 60 | 1004.1 |
| 20260905052521 | 24 | 106 | 0.0 | 6.4 | 0.00 | 0.00 | 0.00 | 60 | 1004.1 |
| 20260905052020 | 24 | 106 | 1.6 | 9.7 | 0.00 | 0.00 | 0.00 | 59 | 1004.2 |
| 20260905051520 | 25 | 107 | 3.2 | 9.7 | 0.00 | 0.00 | 0.00 | 59 | 1004.0 |
| 20260905051019 | 25 | 114 | 3.2 | 6.4 | 0.00 | 0.00 | 0.00 | 60 | 1004.1 |
| 20260905050523 | 25 | 115 | 3.2 | 6.4 | 0.00 | 0.00 | 0.00 | 59 | 1004.2 |
| 20260905050020 | 25 | 111 | 3.2 | 9.7 | 0.00 | 0.00 | 0.00 | 59 | 1004.2 |
| 20260905045523 | 25 | 119 | 1.6 | 12.9 | 0.00 | 0.00 | 0.00 | 58 | 1004.2 |
| 20260905045019 | 25 | 112 | 4.8 | 12.9 | 0.00 | 0.00 | 0.00 | 58 | 1004.2 |
| 20260905044522 | 25 | 107 | 3.2 | 12.9 | 0.00 | 0.00 | 0.00 | 57 | 1004.3 |
| 20260905044021 | 25 | 97 | 4.8 | 11.3 | 0.00 | 0.00 | 0.00 | 58 | 1004.3 |
| 20260905043519 | 25 | 125 | 3.2 | 11.3 | 0.00 | 0.00 | 0.00 | 57 | 1004.4 |
| 20260905043119 | 26 | 101 | 6.4 | 12.9 | 0.00 | 0.00 | 0.00 | 56 | 1004.3 |
| 20260905042520 | 26 | 108 | 6.4 | 12.9 | 0.00 | 0.00 | 0.00 | 56 | 1004.3 |
| 20260905042019 | 26 | 113 | 3.2 | 12.9 | 0.00 | 0.00 | 0.00 | 56 | 1004.3 |
| 20260905041520 | 26 | 117 | 4.8 | 12.9 | 0.00 | 0.00 | 0.00 | 55 | 1004.3 |
| 20260905041019 | 26 | 103 | 6.4 | 11.3 | 0.00 | 0.00 | 0.00 | 54 | 1004.1 |
| 20260905040518 | 27 | 111 | 4.8 | 14.5 | 0.00 | 0.00 | 0.00 | 53 | 1004.1 |
| 20260905040023 | 27 | 105 | 6.4 | 17.7 | 0.00 | 0.00 | 0.00 | 53 | 1003.9 |
| 20260905035518 | 27 | 122 | 11.3 | 24.1 | 0.00 | 0.00 | 0.00 | 53 | 1003.9 |
| 20260905035017 | 27 | 126 | 16.1 | 22.5 | 0.00 | 0.00 | 0.00 | 52 | 1003.9 |
| 20260905034521 | 27 | 133 | 14.5 | 24.1 | 0.00 | 0.00 | 0.00 | 53 | 1003.7 |
| 20260905034017 | 27 | 119 | 12.9 | 24.1 | 0.00 | 0.00 | 0.00 | 54 | 1003.7 |
| 20260905033517 | 27 | 130 | 9.7 | 16.1 | 0.00 | 0.00 | 0.00 | 54 | 1003.7 |
| 20260905033117 | 27 | 135 | 8.0 | 19.3 | 0.00 | 0.00 | 0.00 | 54 | 1003.7 |
| 20260905032520 | 27 | 105 | 9.7 | 19.3 | 0.00 | 0.00 | 0.00 | 54 | 1003.7 |
| 20260905032018 | 27 | 108 | 11.3 | 22.5 | 0.00 | 0.00 | 0.00 | 53 | 1003.7 |
| 20260905031524 | 28 | 122 | 9.7 | 22.5 | 0.00 | 0.00 | 0.00 | 53 | 1003.5 |
| 20260905031020 | 28 | 99 | 9.7 | 19.3 | 0.00 | 0.00 | 0.00 | 53 | 1003.6 |
| 20260905030521 | 28 | 109 | 8.0 | 16.1 | 0.00 | 0.00 | 0.00 | 53 | 1003.6 |
| 20260905030018 | 28 | 101 | 3.2 | 11.3 | 0.00 | 0.00 | 0.00 | 53 | 1003.6 |
| 20260905025517 | 28 | 44 | 3.2 | 12.9 | 0.00 | 0.00 | 0.00 | 53 | 1003.8 |
| 20260905025019 | 28 | 101 | 1.6 | 6.4 | 0.00 | 0.00 | 0.00 | 53 | 1003.8 |
| 20260905024517 | 28 | 101 | 1.6 | 14.5 | 0.00 | 0.00 | 0.00 | 53 | 1003.7 |
| 20260905024020 | 28 | 65 | 3.2 | 14.5 | 0.00 | 0.00 | 0.00 | 52 | 1003.7 |
| 20260905023517 | 28 | 108 | 1.6 | 12.9 | 0.00 | 0.00 | 0.00 | 52 | 1003.8 |
| 20260905023138 | 28 | 67 | 1.6 | 17.7 | 0.00 | 0.00 | 0.00 | 51 | 1003.6 |
| 20260905022516 | 28 | 98 | 6.4 | 17.7 | 0.00 | 0.00 | 0.00 | 50 | 1003.7 |
| 20260905022016 | 28 | 55 | 3.2 | 14.5 | 0.00 | 0.00 | 0.00 | 49 | 1003.6 |
| 20260905021518 | 29 | 48 | 3.2 | 14.5 | 0.00 | 0.00 | 0.00 | 49 | 1003.7 |
| 20260905021016 | 29 | 111 | 0.0 | 8.0 | 0.00 | 0.00 | 0.00 | 48 | 1003.6 |
| 20260905020515 | 30 | 101 | 0.0 | 6.4 | 0.00 | 0.00 | 0.00 | 47 | 1003.5 |
| 20260905020023 | 30 | 99 | 1.6 | 17.7 | 0.00 | 0.00 | 0.00 | 45 | 1003.5 |
| 20260905015516 | 30 | 101 | 0.0 | 17.7 | 0.00 | 0.00 | 0.00 | 45 | 1003.4 |
| 20260905015019 | 30 | 107 | 1.6 | 9.7 | 0.00 | 0.00 | 0.00 | 44 | 1003.4 |
| 20260905014516 | 30 | 84 | 4.8 | 12.9 | 0.00 | 0.00 | 0.00 | 43 | 1003.2 |
| 20260905014015 | 31 | 68 | 4.8 | 12.9 | 0.00 | 0.00 | 0.00 | 42 | 1003.2 |
| 20260905013515 | 31 | 54 | 3.2 | 12.9 | 0.00 | 0.00 | 0.00 | 40 | 1003.1 |
| 20260905013115 | 31 | 68 | 3.2 | 11.3 | 0.00 | 0.00 | 0.00 | 39 | 1003.0 |
| 20260905012518 | 31 | 107 | 3.2 | 11.3 | 0.00 | 0.00 | 0.00 | 39 | 1003.0 |
| 20260905012018 | 32 | 111 | 1.6 | 12.9 | 0.00 | 0.00 | 0.00 | 39 | 1002.9 |
| 20260905011514 | 32 | 113 | 3.2 | 12.9 | 0.00 | 0.00 | 0.00 | 38 | 1003.0 |
| 20260905011014 | 32 | 102 | 6.4 | 12.9 | 0.00 | 0.00 | 0.00 | 38 | 1003.0 |
| 20260905010514 | 33 | 104 | 1.6 | 11.3 | 0.00 | 0.00 | 0.00 | 39 | 1002.8 |
| 20260905010016 | 33 | 92 | 3.2 | 9.7 | 0.00 | 0.00 | 0.00 | 38 | 1002.9 |
| 20260905005514 | 33 | 101 | 3.2 | 9.7 | 0.00 | 0.00 | 0.00 | 38 | 1002.9 |
| 20260905005013 | 33 | 84 | 3.2 | 9.7 | 0.00 | 0.00 | 0.00 | 38 | 1002.9 |
| 20260905004517 | 33 | 115 | 3.2 | 16.1 | 0.00 | 0.00 | 0.00 | 38 | 1002.9 |
| 20260905004013 | 33 | 92 | 9.7 | 17.7 | 0.00 | 0.00 | 0.00 | 38 | 1002.8 |
| 20260905003517 | 34 | 107 | 6.4 | 17.7 | 0.00 | 0.00 | 0.00 | 37 | 1002.8 |
| 20260905003112 | 34 | 103 | 6.4 | 12.9 | 0.00 | 0.00 | 0.00 | 36 | 1002.8 |
| 20260905002510 | 34 | 83 | 4.8 | 12.9 | 0.00 | 0.00 | 0.00 | 35 | 1002.7 |
| 20260905002010 | 34 | 107 | 3.2 | 11.3 | 0.00 | 0.00 | 0.00 | 35 | 1002.7 |
| 20260905001518 | 34 | 97 | 3.2 | 14.5 | 0.00 | 0.00 | 0.00 | 34 | 1002.8 |
| 20260905001009 | 34 | 70 | 6.4 | 14.5 | 0.00 | 0.00 | 0.00 | 34 | 1002.7 |
| 20260905000510 | 35 | 102 | 4.8 | 17.7 | 0.00 | 0.00 | 0.00 | 34 | 1003.0 |
| 20260905000009 | 35 | 46 | 8.0 | 16.1 | 0.00 | 0.00 | 0.00 | 33 | 1002.9 |
| 20260904235507 | 35 | 63 | 6.4 | 16.1 | 0.00 | 0.00 | 0.00 | 32 | 1002.9 |
| 20260904235005 | 35 | 67 | 3.2 | 16.1 | 0.00 | 0.00 | 0.00 | 33 | 1002.8 |
| 20260904234507 | 35 | 62 | 4.8 | 16.1 | 0.00 | 0.00 | 0.00 | 32 | 1002.8 |
| 20260904234002 | 35 | 98 | 3.2 | 16.1 | 0.00 | 0.00 | 0.00 | 32 | 1002.7 |
| 20260904233501 | 35 | 100 | 4.8 | 16.1 | 0.00 | 0.00 | 0.00 | 32 | 1002.7 |
| 20260904233100 | 35 | 101 | 4.8 | 14.5 | 0.00 | 0.00 | 0.00 | 31 | 1002.7 |
| 20260904232505 | 35 | 104 | 4.8 | 12.9 | 0.00 | 0.00 | 0.00 | 31 | 1002.6 |
| 20260904232004 | 35 | 100 | 3.2 | 11.3 | 0.00 | 0.00 | 0.00 | 31 | 1002.8 |
| 20260904231506 | 35 | 104 | 4.8 | 17.7 | 0.00 | 0.00 | 0.00 | 30 | 1002.7 |
| 20260904231101 | 35 | 103 | 6.4 | 17.7 | 0.00 | 0.00 | 0.00 | 30 | 1002.8 |
| 20260904230600 | 35 | 78 | 3.2 | 12.9 | 0.00 | 0.00 | 0.00 | 31 | 1002.7 |
| 20260904230058 | 35 | 99 | 4.8 | 14.5 | 0.00 | 0.00 | 0.00 | 31 | 1002.8 |
| 20260904225556 | 35 | 113 | 6.4 | 14.5 | 0.00 | 0.00 | 0.00 | 31 | 1002.9 |
| 20260904225057 | 35 | 46 | 3.2 | 16.1 | 0.00 | 0.00 | 0.00 | 32 | 1002.8 |
| 20260904224601 | 35 | 99 | 8.0 | 17.7 | 0.00 | 0.00 | 0.00 | 31 | 1003.0 |
| 20260904224054 | 35 | 139 | 9.7 | 17.7 | 0.00 | 0.00 | 0.00 | 31 | 1003.0 |
| 20260904223551 | 35 | 132 | 6.4 | 22.5 | 0.00 | 0.00 | 0.00 | 31 | 1003.2 |
| 20260904223053 | 35 | 100 | 8.0 | 17.7 | 0.00 | 0.00 | 0.00 | 32 | 1003.1 |
| 20260904222045 | 35 | 101 | 8.0 | 16.1 | 0.00 | 0.00 | 0.00 | 31 | 1003.2 |
| 20260904221545 | 35 | 127 | 9.7 | 25.7 | 0.00 | 0.00 | 0.00 | 32 | 1003.3 |
| 20260904221042 | 35 | 120 | 11.3 | 25.7 | 0.00 | 0.00 | 0.00 | 31 | 1003.5 |
| 20260904220543 | 35 | 92 | 11.3 | 19.3 | 0.00 | 0.00 | 0.00 | 31 | 1003.5 |
| 20260904220105 | 35 | 130 | 9.7 | 16.1 | 0.00 | 0.00 | 0.00 | 31 | 1003.5 |
| 20260904215541 | 34 | 167 | 6.4 | 20.9 | 0.00 | 0.00 | 0.00 | 30 | 1003.6 |
| 20260904215043 | 34 | 126 | 11.3 | 20.9 | 0.00 | 0.00 | 0.00 | 30 | 1003.6 |
| 20260904214538 | 34 | 121 | 12.9 | 29.0 | 0.00 | 0.00 | 0.00 | 30 | 1003.7 |
| 20260904214037 | 34 | 125 | 17.7 | 29.0 | 0.00 | 0.00 | 0.00 | 30 | 1003.8 |
| 20260904213539 | 34 | 76 | 11.3 | 19.3 | 0.00 | 0.00 | 0.00 | 34 | 1003.7 |
| 20260904213037 | 33 | 130 | 12.9 | 24.1 | 0.00 | 0.00 | 0.00 | 36 | 1003.9 |
| 20260904212035 | 33 | 119 | 8.0 | 24.1 | 0.00 | 0.00 | 0.00 | 37 | 1004.1 |
| 20260904211538 | 33 | 101 | 11.3 | 25.7 | 0.00 | 0.00 | 0.00 | 37 | 1004.0 |
| 20260904211032 | 33 | 142 | 16.1 | 25.7 | 0.00 | 0.00 | 0.00 | 37 | 1003.9 |
| 20260904210530 | 33 | 138 | 17.7 | 29.0 | 0.00 | 0.00 | 0.00 | 38 | 1004.1 |
| 20260904210036 | 32 | 126 | 16.1 | 29.0 | 0.00 | 0.00 | 0.00 | 38 | 1004.3 |
| 20260904205531 | 33 | 111 | 9.7 | 27.4 | 0.00 | 0.00 | 0.00 | 38 | 1004.3 |
| 20260904205029 | 32 | 144 | 14.5 | 27.4 | 0.00 | 0.00 | 0.00 | 38 | 1004.4 |
| 20260904204527 | 32 | 113 | 17.7 | 27.4 | 0.00 | 0.00 | 0.00 | 39 | 1004.4 |
| 20260904204025 | 32 | 108 | 14.5 | 29.0 | 0.00 | 0.00 | 0.00 | 39 | 1004.4 |
| 20260904203529 | 32 | 136 | 19.3 | 29.0 | 0.00 | 0.00 | 0.00 | 38 | 1004.5 |
| 20260904203033 | 32 | 145 | 17.7 | 32.2 | 0.00 | 0.00 | 0.00 | 40 | 1004.6 |
| 20260904202020 | 32 | 111 | 20.9 | 32.2 | 0.00 | 0.00 | 0.00 | 40 | 1004.5 |
| 20260904201520 | 31 | 144 | 17.7 | 30.6 | 0.00 | 0.00 | 0.00 | 40 | 1004.5 |
| 20260904201023 | 31 | 144 | 16.1 | 27.4 | 0.00 | 0.00 | 0.00 | 41 | 1004.6 |
| 20260904200518 | 31 | 129 | 20.9 | 32.2 | 0.00 | 0.00 | 0.00 | 41 | 1004.6 |
| 20260904200020 | 31 | 130 | 17.7 | 30.6 | 0.00 | 0.00 | 0.00 | 42 | 1004.5 |
| 20260904195520 | 31 | 134 | 17.7 | 33.8 | 0.00 | 0.00 | 0.00 | 42 | 1004.6 |
| 20260904195014 | 31 | 146 | 17.7 | 29.0 | 0.00 | 0.00 | 0.00 | 43 | 1004.6 |
| 20260904194540 | 31 | 165 | 16.1 | 32.2 | 0.00 | 0.00 | 0.00 | 44 | 1004.8 |
| 20260904194014 | 31 | 174 | 22.5 | 30.6 | 0.00 | 0.00 | 0.00 | 43 | 1004.7 |
| 20260904193517 | 31 | 127 | 16.1 | 29.0 | 0.00 | 0.00 | 0.00 | 45 | 1004.9 |
| 20260904193012 | 30 | 129 | 20.9 | 37.0 | 0.00 | 0.00 | 0.00 | 45 | 1004.9 |
| 20260904192013 | 30 | 103 | 17.7 | 38.6 | 0.00 | 0.00 | 0.00 | 46 | 1005.1 |
| 20260904191517 | 30 | 138 | 20.9 | 30.6 | 0.00 | 0.00 | 0.00 | 46 | 1005.1 |
| 20260904191013 | 30 | 125 | 17.7 | 30.6 | 0.00 | 0.00 | 0.00 | 46 | 1005.2 |
| 20260904190510 | 30 | 125 | 19.3 | 29.0 | 0.00 | 0.00 | 0.00 | 46 | 1005.5 |
| 20260904190009 | 30 | 130 | 12.9 | 32.2 | 0.00 | 0.00 | 0.00 | 46 | 1005.4 |
| 20260904185512 | 30 | 148 | 20.9 | 30.6 | 0.00 | 0.00 | 0.00 | 46 | 1005.4 |
| 20260904185008 | 30 | 117 | 20.9 | 30.6 | 0.00 | 0.00 | 0.00 | 46 | 1005.6 |
| 20260904184506 | 30 | 157 | 19.3 | 30.6 | 0.00 | 0.00 | 0.00 | 47 | 1005.6 |
| 20260904184005 | 29 | 100 | 19.3 | 35.4 | 0.00 | 0.00 | 0.00 | 48 | 1005.8 |
| 20260904183503 | 29 | 119 | 24.1 | 33.8 | 0.00 | 0.00 | 0.00 | 48 | 1005.8 |
| 20260904183003 | 29 | 144 | 19.3 | 32.2 | 0.00 | 0.00 | 0.00 | 48 | 1005.9 |
| 20260904182006 | 28 | 146 | 24.1 | 33.8 | 0.00 | 0.00 | 0.00 | 48 | 1006.1 |
| 20260904181501 | 28 | 144 | 20.9 | 37.0 | 0.00 | 0.00 | 0.00 | 49 | 1006.1 |
| 20260904181103 | 28 | 124 | 25.7 | 40.2 | 0.00 | 0.00 | 0.00 | 49 | 1006.1 |
| 20260904180558 | 28 | 114 | 20.9 | 43.5 | 0.00 | 0.00 | 0.00 | 49 | 1006.1 |
| 20260904180113 | 28 | 115 | 19.3 | 40.2 | 0.00 | 0.00 | 0.00 | 49 | 1006.2 |
| 20260904175555 | 28 | 120 | 27.4 | 38.6 | 0.00 | 0.00 | 0.00 | 49 | 1006.3 |
| 20260904175054 | 28 | 130 | 24.1 | 38.6 | 0.00 | 0.00 | 0.00 | 51 | 1006.2 |
| 20260904174608 | 27 | 155 | 22.5 | 37.0 | 0.00 | 0.00 | 0.00 | 51 | 1006.6 |
| 20260904174053 | 27 | 136 | 17.7 | 32.2 | 0.00 | 0.00 | 0.00 | 53 | 1006.6 |
| 20260904173550 | 27 | 138 | 19.3 | 35.4 | 0.00 | 0.00 | 0.00 | 52 | 1006.7 |
| 20260904173050 | 27 | 145 | 25.7 | 35.4 | 0.00 | 0.00 | 0.00 | 52 | 1006.7 |
| 20260904172051 | 27 | 134 | 22.5 | 37.0 | 0.00 | 0.00 | 0.00 | 53 | 1006.8 |
| 20260904171549 | 26 | 132 | 27.4 | 38.6 | 0.00 | 0.00 | 0.00 | 53 | 1007.1 |
| 20260904171048 | 27 | 154 | 22.5 | 40.2 | 0.00 | 0.00 | 0.00 | 52 | 1007.5 |
| 20260904170548 | 27 | 123 | 19.3 | 38.6 | 0.00 | 0.00 | 0.00 | 53 | 1007.5 |
| 20260904170049 | 27 | 128 | 22.5 | 35.4 | 0.00 | 0.00 | 0.00 | 53 | 1007.2 |
| 20260904165547 | 26 | 138 | 20.9 | 35.4 | 0.00 | 0.00 | 0.00 | 51 | 1007.3 |
| 20260904165046 | 26 | 141 | 17.7 | 35.4 | 0.00 | 0.00 | 0.00 | 56 | 1007.4 |
| 20260904164545 | 26 | 128 | 17.7 | 32.2 | 0.00 | 0.00 | 0.00 | 57 | 1007.3 |
| 20260904164044 | 26 | 101 | 14.5 | 24.1 | 0.00 | 0.00 | 0.00 | 59 | 1007.5 |
| 20260904163542 | 25 | 102 | 16.1 | 29.0 | 0.00 | 0.00 | 0.00 | 60 | 1007.3 |
| 20260904163050 | 25 | 89 | 16.1 | 27.4 | 0.00 | 0.00 | 0.00 | 60 | 1007.8 |
| 20260904162038 | 25 | 94 | 16.1 | 27.4 | 0.00 | 0.00 | 0.00 | 62 | 1007.9 |
| 20260904161538 | 25 | 121 | 11.3 | 24.1 | 0.00 | 0.00 | 0.00 | 64 | 1007.7 |
| 20260904161037 | 25 | 121 | 14.5 | 24.1 | 0.00 | 0.00 | 0.00 | 65 | 1007.8 |
| 20260904160535 | 24 | 105 | 12.9 | 25.7 | 0.00 | 0.00 | 0.00 | 67 | 1007.7 |
| 20260904160034 | 24 | 113 | 11.3 | 25.7 | 0.00 | 0.00 | 0.00 | 68 | 1007.7 |
| 20260904155532 | 23 | 108 | 12.9 | 27.4 | 0.00 | 0.00 | 0.00 | 67 | 1007.9 |
| 20260904155031 | 23 | 90 | 14.5 | 27.4 | 0.00 | 0.00 | 0.00 | 69 | 1007.9 |
| 20260904154530 | 23 | 103 | 16.1 | 25.7 | 0.00 | 0.00 | 0.00 | 70 | 1007.9 |
| 20260904154029 | 23 | 103 | 12.9 | 22.5 | 0.00 | 0.00 | 0.00 | 72 | 1008.2 |
| 20260904153528 | 23 | 92 | 12.9 | 24.1 | 0.00 | 0.00 | 0.00 | 72 | 1008.1 |
| 20260904153034 | 22 | 117 | 12.9 | 24.1 | 0.00 | 0.00 | 0.00 | 72 | 1008.2 |
| 20260904152030 | 22 | 108 | 12.9 | 25.7 | 0.00 | 0.00 | 0.00 | 74 | 1008.3 |
| 20260904151530 | 22 | 136 | 14.5 | 29.0 | 0.00 | 0.00 | 0.00 | 75 | 1008.2 |
| 20260904151028 | 22 | 108 | 16.1 | 29.0 | 0.00 | 0.00 | 0.00 | 75 | 1008.2 |
| 20260904150527 | 22 | 113 | 16.1 | 24.1 | 0.00 | 0.00 | 0.00 | 76 | 1008.3 |
| 20260904150025 | 21 | 88 | 9.7 | 19.3 | 0.00 | 0.00 | 0.00 | 77 | 1008.2 |
| 20260904145525 | 21 | 132 | 14.5 | 25.7 | 0.00 | 0.00 | 0.00 | 77 | 1008.2 |
| 20260904145024 | 21 | 122 | 12.9 | 29.0 | 0.00 | 0.00 | 0.00 | 77 | 1008.2 |
| 20260904144524 | 21 | 96 | 12.9 | 29.0 | 0.00 | 0.00 | 0.00 | 77 | 1008.4 |
| 20260904144023 | 21 | 117 | 9.7 | 24.1 | 0.00 | 0.00 | 0.00 | 78 | 1008.3 |
| 20260904143522 | 21 | 144 | 11.3 | 24.1 | 0.00 | 0.00 | 0.00 | 79 | 1008.2 |
| 20260904143023 | 21 | 106 | 11.3 | 20.9 | 0.00 | 0.00 | 0.00 | 80 | 1008.3 |
| 20260904142025 | 20 | 101 | 11.3 | 22.5 | 0.00 | 0.00 | 0.00 | 82 | 1008.2 |
| 20260904141519 | 20 | 114 | 9.7 | 22.5 | 0.00 | 0.00 | 0.00 | 83 | 1008.2 |
| 20260904141025 | 19 | 126 | 8.0 | 22.5 | 0.00 | 0.00 | 0.00 | 85 | 1008.3 |
| 20260904140515 | 19 | 111 | 9.7 | 22.5 | 0.00 | 0.00 | 0.00 | 85 | 1008.4 |
| 20260904140014 | 18 | 116 | 9.7 | 20.9 | 0.00 | 0.00 | 0.00 | 87 | 1008.3 |
| 20260904135513 | 18 | 122 | 12.9 | 20.9 | 0.00 | 0.00 | 0.00 | 89 | 1008.5 |
| 20260904135013 | 18 | 101 | 6.4 | 19.3 | 0.00 | 0.00 | 0.00 | 91 | 1008.3 |
| 20260904134510 | 17 | 105 | 9.7 | 17.7 | 0.00 | 0.00 | 0.00 | 92 | 1008.5 |
| 20260904134011 | 17 | 106 | 4.8 | 12.9 | 0.00 | 0.00 | 0.00 | 94 | 1008.3 |
| 20260904133507 | 16 | 85 | 4.8 | 12.9 | 0.00 | 0.00 | 0.00 | 95 | 1008.4 |
| 20260904133007 | 15 | 66 | 1.6 | 8.0 | 0.00 | 0.00 | 0.00 | 94 | 1008.5 |
| 20260904132002 | 15 | 30 | 1.6 | 4.8 | 0.00 | 0.00 | 0.00 | 93 | 1008.4 |
| 20260904131502 | 15 | 30 | 0.0 | 3.2 | 0.00 | 0.00 | 0.00 | 94 | 1008.4 |
| 20260904131002 | 15 | 30 | 0.0 | 3.2 | 0.00 | 0.00 | 0.00 | 95 | 1008.4 |
| 20260904130502 | 15 | 30 | 0.0 | 6.4 | 0.00 | 0.00 | 0.00 | 95 | 1008.4 |
| 20260904130002 | 14 | 30 | 1.6 | 6.4 | 0.00 | 0.00 | 0.00 | 94 | 1008.4 |
| 20260904125601 | 14 | 5 | 0.0 | 0.0 | 0.00 | 0.00 | 0.00 | 94 | 1008.4 |
| 20260904125059 | 13 | 5 | 0.0 | 3.2 | 0.00 | 0.00 | 0.00 | 94 | 1008.3 |
| 20260904124607 | 13 | 5 | 0.0 | 3.2 | 0.00 | 0.00 | 0.00 | 94 | 1008.4 |
| 20260904124056 | 13 | 5 | 0.0 | 0.0 | 0.00 | 0.00 | 0.00 | 94 | 1008.3 |
| 20260904123558 | 13 | 5 | 0.0 | 3.2 | 0.00 | 0.00 | 0.00 | 94 | 1008.5 |
| 20260904123112 | 13 | 5 | 1.6 | 4.8 | 0.00 | 0.00 | 0.00 | 93 | 1008.4 |
| 20260904122058 | 13 | 5 | 1.6 | 4.8 | 0.00 | 0.00 | 0.00 | 94 | 1008.4 |
| 20260904121602 | 13 | 5 | 1.6 | 4.8 | 0.00 | 0.00 | 0.00 | 93 | 1008.4 |
| 20260904121057 | 13 | 5 | 1.6 | 4.8 | 0.00 | 0.00 | 0.00 | 93 | 1008.4 |